Time,TemperatureF,DewpointF,PressureIn,WindDirection,WindDirectionDegrees,WindSpeedMPH,WindSpeedGustMPH,Humidity,HourlyPrecipIn,Conditions,Clouds,dailyrainin,SoftwareType,DateUTC
2013-04-20 00:12:00,50.0,48.0,-100.00,NNW,331,3.0,-999.0,92,0.00,,,-99.99,,2013-04-20 05:12:00,
2013-04-20 00:22:00,50.0,48.0,-100.00,NNW,331,3.0,-999.0,92,0.00,,,-99.99,,2013-04-20 05:22:00,
2013-04-20 00:32:00,50.0,48.0,-100.00,NNW,331,3.0,-999.0,92,0.00,,,-99.99,,2013-04-20 05:32:00,
2013-04-20 00:42:00,50.0,48.0,-100.00,NNW,331,3.0,-999.0,92,0.00,,,-99.99,,2013-04-20 05:42:00,
2013-04-20 01:21:00,50.0,48.0,-100.00,NW,311,4.0,-999.0,93,0.00,,,-99.99,,2013-04-20 06:21:00,
2013-04-20 01:32:00,50.0,48.0,-100.00,NW,311,4.0,-999.0,93,0.00,,,-99.99,,2013-04-20 06:32:00,
2013-04-20 01:42:00,50.0,48.0,-100.00,NW,311,4.0,-999.0,93,0.00,,,-99.99,,2013-04-20 06:42:00,
2013-04-20 02:21:00,48.0,46.0,-100.00,NNW,343,6.0,-999.0,93,0.00,,,-99.99,,2013-04-20 07:21:00,
2013-04-20 02:32:00,48.0,46.0,-100.00,NNW,343,6.0,-999.0,93,0.00,,,-99.99,,2013-04-20 07:32:00,
2013-04-20 02:42:00,48.0,46.0,-100.00,NNW,343,6.0,-999.0,93,0.00,,,-99.99,,2013-04-20 07:42:00,
2013-04-20 03:11:00,46.0,45.0,-100.00,North,358,5.0,-999.0,96,0.00,,,-99.99,,2013-04-20 08:11:00,
2013-04-20 03:21:00,46.0,45.0,-100.00,North,358,5.0,-999.0,96,0.00,,,-99.99,,2013-04-20 08:21:00,
2013-04-20 03:32:00,46.0,45.0,-100.00,North,358,5.0,-999.0,96,0.00,,,-99.99,,2013-04-20 08:32:00,
2013-04-20 03:42:00,46.0,45.0,-100.00,North,358,5.0,-999.0,96,0.00,,,-99.99,,2013-04-20 08:42:00,
2013-04-20 04:12:00,45.0,45.0,-100.00,North,360,7.0,-999.0,99,0.00,,,-99.99,,2013-04-20 09:12:00,
2013-04-20 04:21:00,45.0,45.0,-100.00,North,360,7.0,-999.0,99,0.00,,,-99.99,,2013-04-20 09:21:00,
2013-04-20 04:33:00,45.0,45.0,-100.00,North,360,7.0,-999.0,99,0.00,,,-99.99,,2013-04-20 09:33:00,
2013-04-20 04:43:00,45.0,45.0,-100.00,North,360,7.0,-999.0,99,0.00,,,-99.99,,2013-04-20 09:43:00,
2013-04-20 05:23:00,44.0,-99.9,-100.00,North,3,5.0,-999.0,101,0.00,,,-99.99,,2013-04-20 10:23:00,
2013-04-20 05:33:00,44.0,-99.9,-100.00,North,3,5.0,-999.0,101,0.00,,,-99.99,,2013-04-20 10:33:00,
2013-04-20 05:42:00,44.0,-99.9,-100.00,North,3,5.0,-999.0,101,0.00,,,-99.99,,2013-04-20 10:42:00,
2013-04-20 06:23:00,44.0,44.0,-100.00,NNE,24,5.0,-999.0,100,0.00,,,-99.99,,2013-04-20 11:23:00,
2013-04-20 06:32:00,44.0,44.0,-100.00,NNE,24,5.0,-999.0,100,0.00,,,-99.99,,2013-04-20 11:32:00,
2013-04-20 06:42:00,44.0,44.0,-100.00,NNE,24,5.0,-999.0,100,0.00,,,-99.99,,2013-04-20 11:42:00,
2013-04-20 07:23:00,43.0,-99.9,-100.00,NNE,27,3.0,-999.0,101,0.00,,,-99.99,,2013-04-20 12:23:00,
2013-04-20 07:32:00,43.0,-99.9,-100.00,NNE,27,3.0,-999.0,101,0.00,,,-99.99,,2013-04-20 12:32:00,
2013-04-20 07:42:00,43.0,-99.9,-100.00,NNE,27,3.0,-999.0,101,0.00,,,-99.99,,2013-04-20 12:42:00,
2013-04-20 08:21:00,48.0,44.0,-100.00,NE,42,9.0,-999.0,87,0.00,,,-99.99,,2013-04-20 13:21:00,
2013-04-20 08:32:00,48.0,44.0,-100.00,NE,42,9.0,-999.0,87,0.00,,,-99.99,,2013-04-20 13:32:00,
2013-04-20 08:42:00,48.0,44.0,-100.00,NE,42,9.0,-999.0,87,0.00,,,-99.99,,2013-04-20 13:42:00,
2013-04-20 09:11:00,51.0,42.0,-100.00,NE,56,13.0,-999.0,72,0.01,,,-99.99,,2013-04-20 14:11:00,
2013-04-20 09:21:00,51.0,42.0,-100.00,NE,56,13.0,-999.0,72,0.01,,,-99.99,,2013-04-20 14:21:00,
2013-04-20 09:32:00,51.0,42.0,-100.00,NE,56,13.0,-999.0,72,0.01,,,-99.99,,2013-04-20 14:32:00,
2013-04-20 09:42:00,51.0,42.0,-100.00,NE,56,13.0,-999.0,72,0.01,,,-99.99,,2013-04-20 14:42:00,
2013-04-20 10:21:00,54.0,42.0,-100.00,ENE,58,15.0,-999.0,64,0.00,,,-99.99,,2013-04-20 15:21:00,
2013-04-20 10:33:00,54.0,42.0,-100.00,ENE,58,15.0,-999.0,64,0.00,,,-99.99,,2013-04-20 15:33:00,
2013-04-20 10:43:00,54.0,42.0,-100.00,ENE,58,15.0,-999.0,64,0.00,,,-99.99,,2013-04-20 15:43:00,
2013-04-20 11:23:00,56.0,39.0,-100.00,NE,54,15.0,-999.0,52,0.00,,,-99.99,,2013-04-20 16:23:00,
2013-04-20 11:32:00,56.0,39.0,-100.00,NE,54,15.0,-999.0,52,0.00,,,-99.99,,2013-04-20 16:32:00,
2013-04-20 11:42:00,56.0,39.0,-100.00,NE,54,15.0,-999.0,52,0.00,,,-99.99,,2013-04-20 16:42:00,
2013-04-20 12:23:00,58.0,38.0,-100.00,NE,51,14.0,-999.0,47,0.00,,,-99.99,,2013-04-20 17:23:00,
2013-04-20 12:33:00,58.0,38.0,-100.00,NE,51,14.0,-999.0,47,0.00,,,-99.99,,2013-04-20 17:33:00,
2013-04-20 12:42:00,58.0,38.0,-100.00,NE,51,14.0,-999.0,47,0.00,,,-99.99,,2013-04-20 17:42:00,
2013-04-20 13:22:00,59.0,39.0,-100.00,ENE,68,13.0,-999.0,46,0.00,,,-99.99,,2013-04-20 18:22:00,
2013-04-20 13:32:00,59.0,39.0,-100.00,ENE,68,13.0,-999.0,46,0.00,,,-99.99,,2013-04-20 18:32:00,
2013-04-20 13:42:00,59.0,39.0,-100.00,ENE,68,13.0,-999.0,46,0.00,,,-99.99,,2013-04-20 18:42:00,
2013-04-20 14:21:00,61.0,38.0,-100.00,NE,52,11.0,-999.0,42,0.00,,,-99.99,,2013-04-20 19:21:00,
2013-04-20 14:32:00,61.0,38.0,-100.00,NE,52,11.0,-999.0,42,0.00,,,-99.99,,2013-04-20 19:32:00,
2013-04-20 14:42:00,61.0,38.0,-100.00,NE,52,11.0,-999.0,42,0.00,,,-99.99,,2013-04-20 19:42:00,
2013-04-20 15:12:00,64.0,36.0,-100.00,NNE,26,10.0,-999.0,36,0.00,,,-99.99,,2013-04-20 20:12:00,
2013-04-20 15:22:00,64.0,36.0,-100.00,NNE,26,10.0,-999.0,36,0.00,,,-99.99,,2013-04-20 20:22:00,
2013-04-20 15:32:00,64.0,36.0,-100.00,NNE,26,10.0,-999.0,36,0.00,,,-99.99,,2013-04-20 20:32:00,
2013-04-20 15:42:00,64.0,36.0,-100.00,NNE,26,10.0,-999.0,36,0.00,,,-99.99,,2013-04-20 20:42:00,
2013-04-20 16:22:00,65.0,38.0,-100.00,NE,37,10.0,-999.0,37,0.00,,,-99.99,,2013-04-20 21:22:00,
2013-04-20 16:33:00,65.0,38.0,-100.00,NE,37,10.0,-999.0,37,0.00,,,-99.99,,2013-04-20 21:33:00,
2013-04-20 16:43:00,65.0,38.0,-100.00,NE,37,10.0,-999.0,37,0.00,,,-99.99,,2013-04-20 21:43:00,
2013-04-20 17:22:00,66.0,41.0,-100.00,NNE,20,8.0,-999.0,39,0.00,,,-99.99,,2013-04-20 22:22:00,
2013-04-20 17:32:00,66.0,41.0,-100.00,NNE,20,8.0,-999.0,39,0.00,,,-99.99,,2013-04-20 22:32:00,
2013-04-20 17:42:00,66.0,41.0,-100.00,NNE,20,8.0,-999.0,39,0.00,,,-99.99,,2013-04-20 22:42:00,
2013-04-20 18:11:00,66.0,43.0,-100.00,ENE,57,10.0,-999.0,42,0.00,,,-99.99,,2013-04-20 23:11:00,
2013-04-20 18:22:00,66.0,43.0,-100.00,ENE,57,10.0,-999.0,42,0.00,,,-99.99,,2013-04-20 23:22:00,
2013-04-20 18:32:00,66.0,43.0,-100.00,ENE,57,10.0,-999.0,42,0.00,,,-99.99,,2013-04-20 23:32:00,
2013-04-20 18:42:00,66.0,43.0,-100.00,ENE,57,10.0,-999.0,42,0.00,,,-99.99,,2013-04-20 23:42:00,
2013-04-20 19:22:00,66.0,44.0,-100.00,ENE,71,10.0,-999.0,45,0.00,,,-99.99,,2013-04-21 00:22:00,
2013-04-20 19:32:00,66.0,44.0,-100.00,ENE,71,10.0,-999.0,45,0.00,,,-99.99,,2013-04-21 00:32:00,
2013-04-20 19:42:00,66.0,44.0,-100.00,ENE,71,10.0,-999.0,45,0.00,,,-99.99,,2013-04-21 00:42:00,
2013-04-20 20:21:00,64.0,46.0,-100.00,ENE,70,10.0,-999.0,52,0.00,,,-99.99,,2013-04-21 01:21:00,
2013-04-20 20:32:00,64.0,46.0,-100.00,ENE,70,10.0,-999.0,52,0.00,,,-99.99,,2013-04-21 01:32:00,
2013-04-20 20:42:00,64.0,46.0,-100.00,ENE,70,10.0,-999.0,52,0.00,,,-99.99,,2013-04-21 01:42:00,
2013-04-20 21:22:00,61.0,48.0,-100.00,NE,44,6.0,-999.0,60,0.00,,,-99.99,,2013-04-21 02:22:00,
2013-04-20 21:32:00,61.0,48.0,-100.00,NE,44,6.0,-999.0,60,0.00,,,-99.99,,2013-04-21 02:32:00,
2013-04-20 21:42:00,61.0,48.0,-100.00,NE,44,6.0,-999.0,60,0.00,,,-99.99,,2013-04-21 02:42:00,
2013-04-20 22:21:00,60.0,47.0,-100.00,NE,45,7.0,-999.0,63,0.00,,,-99.99,,2013-04-21 03:21:00,
2013-04-20 22:33:00,60.0,47.0,-100.00,NE,45,7.0,-999.0,63,0.00,,,-99.99,,2013-04-21 03:33:00,
2013-04-20 22:42:00,60.0,47.0,-100.00,NE,45,7.0,-999.0,63,0.00,,,-99.99,,2013-04-21 03:42:00,
2013-04-20 23:23:00,57.0,46.0,-100.00,NNE,29,6.0,-999.0,66,0.00,,,-99.99,,2013-04-21 04:23:00,
2013-04-20 23:33:00,57.0,46.0,-100.00,NNE,29,6.0,-999.0,66,0.00,,,-99.99,,2013-04-21 04:33:00,
2013-04-20 23:42:00,57.0,46.0,-100.00,NNE,29,6.0,-999.0,66,0.00,,,-99.99,,2013-04-21 04:42:00,